TimeCDT,TemperatureF,Dew PointF,Humidity,Sea Level PressureIn,VisibilityMPH,Wind Direction,Wind SpeedMPH,Gust SpeedMPH,PrecipitationIn,Events,Conditions,WindDirDegrees,DateUTC
12:15 AM,58.1,36.5,44,29.81,10.0,SSE,9.2,-,N/A,,Clear,150,2013-04-29 05:15:00
12:35 AM,55.8,36.1,48,29.81,10.0,SE,10.4,-,N/A,,Clear,140,2013-04-29 05:35:00
1:15 AM,55.2,36.9,50,29.80,10.0,SSE,8.1,-,N/A,,Clear,150,2013-04-29 06:15:00
1:35 AM,54.5,37.0,52,29.81,10.0,SSE,10.4,-,N/A,,Clear,150,2013-04-29 06:35:00
1:55 AM,54.7,37.2,52,29.80,10.0,SSE,10.4,-,N/A,,Clear,150,2013-04-29 06:55:00
2:15 AM,54.5,37.6,53,29.80,10.0,SSE,10.4,-,N/A,,Clear,160,2013-04-29 07:15:00
2:35 AM,54.7,37.6,53,29.80,10.0,SSE,9.2,-,N/A,,Clear,160,2013-04-29 07:35:00
2:55 AM,54.1,37.6,54,29.80,10.0,SSE,9.2,-,N/A,,Clear,160,2013-04-29 07:55:00
3:15 AM,53.2,37.4,55,29.80,10.0,SSE,9.2,-,N/A,,Clear,160,2013-04-29 08:15:00
3:35 AM,51.8,37.4,58,29.80,10.0,SSE,10.4,-,N/A,,Clear,160,2013-04-29 08:35:00
3:55 AM,53.4,37.4,55,29.80,10.0,SSE,9.2,-,N/A,,Clear,160,2013-04-29 08:55:00
4:15 AM,52.2,37.4,57,29.80,10.0,SSE,10.4,-,N/A,,Clear,160,2013-04-29 09:15:00
4:35 AM,52.7,37.4,56,29.79,10.0,South,10.4,-,N/A,,Clear,170,2013-04-29 09:35:00
4:55 AM,51.6,37.4,58,29.78,10.0,South,9.2,-,N/A,,Clear,170,2013-04-29 09:55:00
5:15 AM,52.3,37.4,57,29.78,10.0,South,10.4,-,N/A,,Clear,180,2013-04-29 10:15:00
5:35 AM,54.3,37.4,53,29.78,10.0,South,10.4,-,N/A,,Clear,180,2013-04-29 10:35:00
5:55 AM,54.3,36.9,52,29.78,10.0,South,9.2,-,N/A,,Clear,180,2013-04-29 10:55:00
6:15 AM,53.2,36.5,53,29.79,10.0,South,8.1,-,N/A,,Clear,170,2013-04-29 11:15:00
6:35 AM,51.6,36.7,57,29.79,10.0,South,10.4,-,N/A,,Clear,170,2013-04-29 11:35:00
6:55 AM,54.1,36.9,52,29.80,10.0,South,11.5,-,N/A,,Clear,180,2013-04-29 11:55:00
7:15 AM,54.7,37.0,51,29.80,10.0,South,10.4,-,N/A,,Clear,190,2013-04-29 12:15:00
7:35 AM,57.7,37.8,47,29.80,10.0,SSW,12.7,-,N/A,,Clear,200,2013-04-29 12:35:00
7:55 AM,59.9,37.9,44,29.80,10.0,SSW,12.7,-,N/A,,Clear,210,2013-04-29 12:55:00
8:15 AM,63.5,39.2,41,29.80,10.0,SSW,17.3,21.9,N/A,,Clear,210,2013-04-29 13:15:00
8:35 AM,66.4,39.4,37,29.80,10.0,SW,16.1,-,N/A,,Clear,220,2013-04-29 13:35:00
8:55 AM,70.0,39.6,33,29.81,10.0,SW,23.0,29.9,N/A,,Clear,230,2013-04-29 13:55:00
9:15 AM,72.5,40.1,31,29.80,10.0,WSW,27.6,34.5,N/A,,Clear,240,2013-04-29 14:15:00
9:35 AM,74.3,40.3,29,29.80,10.0,WSW,27.6,34.5,N/A,,Clear,250,2013-04-29 14:35:00
9:55 AM,76.1,40.8,28,29.80,10.0,WSW,27.6,36.8,N/A,,Clear,240,2013-04-29 14:55:00
10:15 AM,77.9,39.9,26,29.79,10.0,SW,32.2,40.3,N/A,,Clear,230,2013-04-29 15:15:00
10:35 AM,79.2,40.1,25,29.79,10.0,SW,28.8,35.7,N/A,,Clear,230,2013-04-29 15:35:00
10:55 AM,80.8,39.4,23,29.78,10.0,SW,28.8,35.7,N/A,,Clear,220,2013-04-29 15:55:00
11:15 AM,81.5,37.0,20,29.78,10.0,WSW,26.5,34.5,N/A,,Clear,240,2013-04-29 16:15:00
11:35 AM,82.6,36.7,19,29.77,10.0,SW,24.2,31.1,N/A,,Clear,220,2013-04-29 16:35:00
11:55 AM,83.5,36.0,18,29.77,10.0,SW,21.9,29.9,N/A,,Clear,230,2013-04-29 16:55:00
12:15 PM,84.2,36.3,18,29.77,10.0,WSW,19.6,34.5,N/A,,Clear,240,2013-04-29 17:15:00
12:35 PM,84.6,36.0,18,29.76,10.0,WSW,19.6,25.3,N/A,,Clear,240,2013-04-29 17:35:00
12:55 PM,86.0,35.1,16,29.75,10.0,WSW,16.1,29.9,N/A,,Clear,250,2013-04-29 17:55:00
1:15 PM,88.3,32.0,13,29.74,10.0,SSW,20.7,31.1,N/A,,Clear,210,2013-04-29 18:15:00
1:35 PM,89.6,31.8,13,29.73,10.0,SSW,24.2,35.7,N/A,,Clear,210,2013-04-29 18:35:00
1:55 PM,91.0,31.6,12,29.71,10.0,SSW,20.7,31.1,N/A,,Clear,200,2013-04-29 18:55:00
2:35 PM,91.4,31.6,12,29.70,10.0,SW,20.7,28.8,N/A,,Clear,230,2013-04-29 19:35:00
2:55 PM,92.8,30.2,11,29.69,10.0,SW,21.9,29.9,N/A,,Clear,220,2013-04-29 19:55:00
3:15 PM,91.9,31.5,12,29.69,10.0,WSW,17.3,25.3,N/A,,Clear,240,2013-04-29 20:15:00
3:35 PM,91.2,31.3,12,29.68,10.0,West,17.3,26.5,N/A,,Clear,270,2013-04-29 20:35:00
3:55 PM,91.0,30.7,12,29.67,10.0,WSW,17.3,27.6,N/A,,Clear,240,2013-04-29 20:55:00
4:15 PM,91.9,30.0,11,29.66,10.0,West,13.8,24.2,N/A,,Clear,270,2013-04-29 21:15:00
4:35 PM,92.3,29.8,11,29.66,10.0,West,18.4,28.8,N/A,,Clear,260,2013-04-29 21:35:00
4:55 PM,91.9,29.5,11,29.64,10.0,WSW,19.6,-,N/A,,Clear,240,2013-04-29 21:55:00
5:15 PM,92.3,28.8,10,29.64,10.0,West,8.1,21.9,N/A,,Clear,260,2013-04-29 22:15:00
5:35 PM,92.5,27.9,10,29.63,10.0,West,17.3,21.9,N/A,,Clear,270,2013-04-29 22:35:00
5:55 PM,91.6,28.6,10,29.62,10.0,West,10.4,-,N/A,,Clear,270,2013-04-29 22:55:00
6:15 PM,91.4,27.7,10,29.62,10.0,West,10.4,19.6,N/A,,Clear,270,2013-04-29 23:15:00
6:35 PM,91.2,27.1,10,29.62,10.0,WSW,13.8,-,N/A,,Clear,250,2013-04-29 23:35:00
6:55 PM,90.7,27.0,10,29.62,10.0,West,11.5,-,N/A,,Clear,270,2013-04-29 23:55:00
7:15 PM,90.1,25.9,10,29.61,10.0,West,9.2,-,N/A,,Clear,280,2013-04-30 00:15:00
7:35 PM,88.3,25.9,10,29.61,10.0,West,6.9,-,N/A,,Clear,270,2013-04-30 00:35:00
7:55 PM,86.0,26.2,11,29.61,10.0,West,3.5,-,N/A,,Clear,270,2013-04-30 00:55:00
8:15 PM,82.8,26.8,13,29.61,10.0,Calm,Calm,-,N/A,,Clear,0,2013-04-30 01:15:00
8:35 PM,77.4,27.0,16,29.62,10.0,SSE,16.1,19.6,N/A,,Clear,160,2013-04-30 01:35:00
8:55 PM,80.1,32.0,17,29.63,10.0,South,15.0,-,N/A,,Clear,170,2013-04-30 01:55:00
9:15 PM,77.7,32.4,19,29.64,10.0,South,11.5,-,N/A,,Clear,190,2013-04-30 02:15:00
9:35 PM,73.9,32.5,22,29.64,10.0,South,5.8,-,N/A,,Clear,180,2013-04-30 02:35:00
9:55 PM,73.0,32.9,23,29.64,10.0,South,11.5,-,N/A,,Clear,180,2013-04-30 02:55:00
10:35 PM,75.2,31.3,20,29.65,10.0,South,19.6,-,N/A,,Clear,170,2013-04-30 03:35:00
10:55 PM,74.8,30.2,19,29.65,10.0,South,21.9,26.5,N/A,,Clear,170,2013-04-30 03:55:00
11:15 PM,73.9,30.2,20,29.65,10.0,South,20.7,-,N/A,,Clear,170,2013-04-30 04:15:00
11:35 PM,72.0,30.6,22,29.65,10.0,South,20.7,24.2,N/A,,Clear,170,2013-04-30 04:35:00
11:55 PM,72.3,32.0,23,29.65,10.0,South,25.3,31.1,N/A,,Clear,170,2013-04-30 04:55:00